DW0937 Weather Reports


Display with metric or nautical units.
time (UTC)temp
F
wind
direction
speed
MPH
gust
MPH
rain 1hr
in
rain 24hr
in
rain mn
in
humidity
%
barometer
mb
20260509114813 52 310 1.0 9.0 0.00 0.00 0.00 77 1002.9
20260509114311 52 338 1.0 6.0 0.00 0.00 0.00 77 1002.9
20260509113813 52 314 1.0 6.0 0.00 0.00 0.00 77 1002.8
20260509113311 52 322 0.0 5.0 0.00 0.00 0.00 77 1002.7
20260509112812 52 303 0.0 5.0 0.00 0.00 0.00 77 1002.5
20260509112312 51 337 0.0 5.0 0.00 0.00 0.00 77 1002.4
20260509111813 51 306 1.0 7.0 0.00 0.00 0.00 77 1002.3
20260509111312 51 319 1.0 7.0 0.00 0.00 0.00 76 1002.1
20260509110812 51 250 0.0 0.0 0.00 0.00 0.00 76 1001.9
20260509110311 51 192 0.0 0.0 0.00 0.00 0.00 75 1001.9
20260509105812 51 192 0.0 0.0 0.00 0.00 0.00 75 1001.8
20260509105311 51 192 0.0 0.0 0.00 0.00 0.00 74 1001.8
20260509105259 52 182 0.0 0.0 0.00 0.00 0.00 73 1001.8
20260509104313 52 343 0.0 2.0 0.00 0.00 0.00 72 1001.8
20260509103811 52 288 1.0 6.0 0.00 0.00 0.00 71 1001.7
20260509103310 53 219 0.0 6.0 0.00 0.00 0.00 70 1001.5
20260509103032 53 234 0.0 6.0 0.00 0.00 0.00 66 1001.9
20260509102310 53 304 0.0 6.0 0.00 0.00 0.00 64 1001.8
20260509101810 53 336 0.0 2.0 0.00 0.00 0.00 63 1001.6
20260509101311 53 325 0.0 0.0 0.00 0.00 0.00 62 1001.7
20260509100807 53 325 0.0 0.0 0.00 0.00 0.00 60 1001.5
20260509100307 53 342 0.0 1.0 0.00 0.00 0.00 58 1001.4
20260509100027 53 346 0.0 1.0 0.00 0.00 0.00 57 1001.4
20260509095305 53 340 0.0 1.0 0.00 0.00 0.00 57 1001.5
20260509095023 53 336 0.0 1.0 0.00 0.00 0.00 56 1001.7
20260509094300 53 334 0.0 5.0 0.00 0.00 0.00 55 1001.7
20260509093800 53 323 0.0 5.0 0.00 0.00 0.00 55 1002.0
20260509093259 53 333 0.0 4.0 0.00 0.00 0.00 54 1002.0
20260509092757 53 346 0.0 4.0 0.00 0.00 0.00 54 1002.0
20260509092258 53 340 0.0 5.0 0.00 0.00 0.00 54 1002.0
20260509091757 54 15 1.0 5.0 0.00 0.00 0.00 54 1001.9
20260509091259 54 355 1.0 7.0 0.00 0.00 0.00 53 1001.8
20260509090756 54 333 1.0 7.0 0.00 0.00 0.00 53 1001.8
20260509090253 54 314 1.0 6.0 0.00 0.00 0.00 52 1001.6
20260509085755 54 338 1.0 5.0 0.00 0.00 0.00 51 1001.7
20260509085253 54 313 1.0 5.0 0.00 0.00 0.00 50 1001.7
20260509084751 54 332 1.0 7.0 0.00 0.00 0.00 50 1001.7
20260509084246 54 326 1.0 7.0 0.00 0.00 0.00 49 1001.6
20260509084004 54 334 1.0 7.0 0.00 0.00 0.00 48 1001.6
20260509083244 53 337 0.0 7.0 0.00 0.00 0.00 48 1001.6
20260509082744 53 321 0.0 3.0 0.00 0.00 0.00 48 1001.5
20260509082243 53 324 0.0 3.0 0.00 0.00 0.00 48 1001.5
20260509081743 53 315 0.0 3.0 0.00 0.00 0.00 48 1001.5
20260509081244 53 321 0.0 1.0 0.00 0.00 0.00 48 1001.5
20260509080744 53 269 0.0 0.0 0.00 0.00 0.00 48 1001.0
20260509080243 53 268 0.0 0.0 0.00 0.00 0.00 48 1000.7
20260509075742 53 268 0.0 0.0 0.00 0.00 0.00 47 1000.9
20260509075241 53 268 0.0 0.0 0.00 0.00 0.00 47 1000.6
20260509074742 52 269 0.0 0.0 0.00 0.00 0.00 47 1000.6
20260509074506 52 269 0.0 0.0 0.00 0.00 0.00 46 1000.5
20260509074000 52 269 0.0 0.0 0.00 0.00 0.00 46 1000.5
20260509073236 52 269 0.0 0.0 0.00 0.00 0.00 46 1000.6
20260509072732 52 269 0.0 0.0 0.00 0.00 0.00 46 1000.7
20260509072231 52 269 0.0 0.0 0.00 0.00 0.00 46 1000.8
20260509071725 52 269 0.0 0.0 0.00 0.00 0.00 46 1000.9
20260509071447 52 269 0.0 0.0 0.00 0.00 0.00 45 1000.9
20260509070725 52 269 0.0 0.0 0.00 0.00 0.00 45 1000.9
20260509070225 52 269 0.0 0.0 0.00 0.00 0.00 45 1000.9
20260509065951 52 269 0.0 0.0 0.00 0.00 0.00 45 1000.9
20260509065223 52 269 0.0 0.0 0.00 0.00 0.00 44 1000.9
20260509064724 52 269 0.0 0.0 0.00 0.00 0.00 44 1000.9
20260509064221 52 269 0.0 0.0 0.00 0.00 0.00 45 1000.9
20260509063722 52 269 0.0 0.0 0.00 0.00 0.00 44 1001.0
20260509063223 53 269 0.0 0.0 0.00 0.00 0.00 43 1001.1
20260509062721 53 269 0.0 0.0 0.00 0.00 0.00 42 1001.1
20260509062442 53 269 0.0 0.0 0.00 0.00 0.00 43 1001.1
20260509061719 53 269 0.0 0.0 0.00 0.00 0.00 43 1001.0
20260509061220 53 269 0.0 0.0 0.00 0.00 0.00 43 1001.1
20260509060719 53 269 0.0 0.0 0.00 0.00 0.00 42 1001.1
20260509060218 53 269 0.0 0.0 0.00 0.00 0.00 42 1001.2
20260509055718 53 269 0.0 0.0 0.00 0.00 0.00 41 1001.1
20260509055217 54 269 0.0 0.0 0.00 0.00 0.00 41 1001.4
20260509054718 54 269 0.0 0.0 0.00 0.00 0.00 41 1001.5
20260509054215 54 269 0.0 0.0 0.00 0.00 0.00 40 1001.6
20260509053713 54 269 0.0 0.0 0.00 0.00 0.00 39 1001.6
20260509053213 55 355 0.0 0.0 0.00 0.00 0.00 39 1001.5
20260509052714 55 355 0.0 0.0 0.00 0.00 0.00 38 1001.7
20260509052212 56 355 0.0 0.0 0.00 0.00 0.00 37 1001.6
20260509051933 56 355 0.0 0.0 0.00 0.00 0.00 37 1001.6
20260509051211 56 355 0.0 0.0 0.00 0.00 0.00 36 1001.7
20260509050711 56 355 0.0 0.0 0.00 0.00 0.00 36 1001.8
20260509050212 57 355 0.0 0.0 0.00 0.00 0.00 35 1001.8
20260509045712 57 355 0.0 0.0 0.00 0.00 0.00 35 1001.9
20260509045211 57 355 0.0 0.0 0.00 0.00 0.00 35 1001.9
20260509044711 58 355 0.0 1.0 0.00 0.00 0.00 34 1002.0
20260509044213 58 313 0.0 1.0 0.00 0.00 0.00 34 1001.9
20260509043709 58 318 0.0 0.0 0.00 0.00 0.00 34 1002.0
20260509043208 58 321 0.0 2.0 0.00 0.00 0.00 33 1002.1
20260509042922 58 311 0.0 2.0 0.00 0.00 0.00 33 1002.0
20260509042203 59 317 0.0 2.0 0.00 0.00 0.00 33 1002.1
20260509041705 59 307 0.0 5.0 0.00 0.00 0.00 33 1002.2
20260509041206 59 302 0.0 5.0 0.00 0.00 0.00 33 1002.1
20260509041155 59 0 0.0 1.0 0.00 0.00 0.00 33 1002.1
20260509040202 60 311 0.0 1.0 0.00 0.00 0.00 33 1002.0
20260509035701 60 314 0.0 3.0 0.00 0.00 0.00 33 1002.1
20260509035425 60 301 0.0 5.0 0.00 0.00 0.00 32 1002.0
20260509034700 60 336 0.0 6.0 0.00 0.00 0.00 32 1002.0
20260509034430 60 299 0.0 6.0 0.00 0.00 0.00 32 1002.1
20260509033701 60 308 1.0 5.0 0.00 0.00 0.00 32 1002.1
20260509033201 61 312 1.0 5.0 0.00 0.00 0.00 31 1002.0
20260509032702 61 314 0.0 3.0 0.00 0.00 0.00 32 1002.0
20260509032416 61 310 0.0 4.0 0.00 0.00 0.00 33 1002.0
20260509031657 61 13 0.0 6.0 0.00 0.00 0.00 32 1002.0
20260509031155 62 329 1.0 6.0 0.00 0.00 0.00 32 1001.8
20260509030654 62 317 1.0 6.0 0.00 0.00 0.00 31 1001.8
20260509030155 62 288 2.0 10.0 0.00 0.00 0.00 31 1001.8
20260509025654 62 326 3.0 10.0 0.00 0.00 0.00 31 1001.7
20260509025153 63 308 4.0 13.0 0.00 0.00 0.00 31 1001.7
20260509024654 63 340 3.0 13.0 0.00 0.00 0.00 31 1001.6
20260509024153 64 5 2.0 11.0 0.00 0.00 0.00 31 1001.5
20260509023653 64 307 2.0 10.0 0.00 0.00 0.00 31 1001.5
20260509023152 64 317 1.0 5.0 0.00 0.00 0.00 31 1001.3
20260509022654 64 316 1.0 6.0 0.00 0.00 0.00 30 1001.2
20260509022153 65 324 2.0 8.0 0.00 0.00 0.00 30 1001.1
20260509021652 65 309 1.0 8.0 0.00 0.00 0.00 29 1001.0
20260509021635 65 316 2.0 8.0 0.00 0.00 0.00 29 1000.9
20260509020654 65 318 2.0 13.0 0.00 0.00 0.00 29 1000.8
20260509020154 65 265 1.0 13.0 0.00 0.00 0.00 28 1000.8
20260509015654 65 279 0.0 8.0 0.00 0.00 0.00 27 1000.6
20260509015152 65 255 0.0 2.0 0.00 0.00 0.00 28 1000.6
20260509014654 65 305 0.0 3.0 0.00 0.00 0.00 27 1000.5
20260509014153 66 225 0.0 5.0 0.00 0.00 0.00 27 1000.4
20260509013652 66 298 0.0 5.0 0.00 0.00 0.00 27 1000.4
20260509013154 66 288 0.0 1.0 0.00 0.00 0.00 26 1000.3
20260509012654 67 300 0.0 2.0 0.00 0.00 0.00 26 1000.3
20260509012153 67 350 0.0 5.0 0.00 0.00 0.00 25 1000.2
20260509011653 67 5 0.0 5.0 0.00 0.00 0.00 25 1000.2
20260509011153 67 306 1.0 8.0 0.00 0.00 0.00 25 1000.1
20260509010922 68 355 1.0 8.0 0.00 0.00 0.00 24 1000.1
20260509010417 68 319 1.0 9.0 0.00 0.00 0.00 25 1000.1
20260509005654 68 293 0.0 12.0 0.00 0.00 0.00 24 1000.1
20260509005153 68 303 1.0 12.0 0.00 0.00 0.00 24 1000.1
20260509004652 69 283 1.0 9.0 0.00 0.00 0.00 24 1000.0
20260509004152 69 286 2.0 9.0 0.00 0.00 0.00 24 1000.0
20260509003652 69 319 2.0 9.0 0.00 0.00 0.00 24 1000.0
20260509003151 69 275 1.0 6.0 0.00 0.00 0.00 25 1000.0
20260509002649 70 288 1.0 7.0 0.00 0.00 0.00 24 1000.0
20260509002147 70 355 2.0 9.0 0.00 0.00 0.00 24 1000.0
20260509001648 70 348 1.0 9.0 0.00 0.00 0.00 23 1000.0
20260509001147 71 296 1.0 7.0 0.00 0.00 0.00 24 1000.0
20260509000646 71 319 2.0 7.0 0.00 0.00 0.00 24 1000.0
20260509000356 71 307 2.0 9.0 0.00 0.00 0.00 24 1000.0
20260508235630 71 246 1.0 9.0 0.00 0.00 0.00 24 999.9
20260508235127 71 288 1.0 9.0 0.00 0.00 0.00 24 1000.0
20260508234626 71 311 2.0 11.0 0.00 0.00 0.00 24 1000.1
20260508234126 72 281 2.0 12.0 0.00 0.00 0.00 24 1000.0
20260508233626 72 303 3.0 12.0 0.00 0.00 0.00 24 1000.1
20260508233126 71 338 2.0 10.0 0.00 0.00 0.00 24 1000.0
20260508232845 71 288 1.0 7.0 0.00 0.00 0.00 24 1000.2
20260508232126 72 327 2.0 11.0 0.00 0.00 0.00 24 1000.2
20260508232110 72 311 2.0 11.0 0.00 0.00 0.00 24 1000.2
20260508231353 72 277 1.0 8.0 0.00 0.00 0.00 24 1000.3
20260508230628 71 288 0.0 2.0 0.00 0.00 0.00 25 1000.3
20260508230126 72 332 1.0 9.0 0.00 0.00 0.00 24 1000.2
20260508225627 72 289 1.0 9.0 0.00 0.00 0.00 24 1000.3
20260508225127 72 316 0.0 5.0 0.00 0.00 0.00 24 1000.3
20260508224627 72 274 1.0 6.0 0.00 0.00 0.00 25 1000.3
20260508224121 72 0 1.0 6.0 0.00 0.00 0.00 25 1000.3
20260508223841 72 311 1.0 6.0 0.00 0.00 0.00 24 1000.4
20260508223116 72 318 1.0 7.0 0.00 0.00 0.00 24 1000.5
20260508222617 73 259 1.0 12.0 0.00 0.00 0.00 23 1000.4
20260508222114 73 302 1.0 12.0 0.00 0.00 0.00 25 1000.4
20260508221615 72 218 0.0 4.0 0.00 0.00 0.00 25 1000.4
20260508221117 71 251 1.0 4.0 0.00 0.00 0.00 25 1000.5
20260508220614 72 340 1.0 5.0 0.00 0.00 0.00 23 1000.6
20260508220114 72 305 0.0 5.0 0.00 0.00 0.00 25 1000.6
20260508215614 72 311 1.0 9.0 0.00 0.00 0.00 24 1000.7
20260508215115 72 337 1.0 9.0 0.00 0.00 0.00 23 1000.8
20260508214614 73 250 1.0 6.0 0.00 0.00 0.00 24 1000.8
20260508214114 72 329 1.0 7.0 0.00 0.00 0.00 24 1000.8
20260508213617 72 5 1.0 7.0 0.00 0.00 0.00 23 1000.8
20260508213114 71 246 0.0 4.0 0.00 0.00 0.00 24 1000.9
20260508212612 71 308 1.0 8.0 0.00 0.00 0.00 23 1001.0
20260508212112 72 308 1.0 9.0 0.00 0.00 0.00 22 1001.1
20260508211610 72 314 1.0 9.0 0.00 0.00 0.00 23 1001.1
20260508211110 72 319 1.0 8.0 0.00 0.00 0.00 23 1001.2
20260508210610 71 0 1.0 8.0 0.00 0.00 0.00 22 1001.2
20260508210111 73 288 1.0 7.0 0.00 0.00 0.00 23 1001.3
20260508205610 73 252 1.0 8.0 0.00 0.00 0.00 24 1001.3
20260508205109 72 221 2.0 8.0 0.00 0.00 0.00 24 1001.4
20260508204609 72 297 1.0 6.0 0.00 0.00 0.00 23 1001.5
20260508204326 71 306 2.0 8.0 0.00 0.00 0.00 23 1001.7
20260508203609 72 331 2.0 10.0 0.00 0.00 0.00 23 1001.8
20260508203109 71 302 3.0 10.0 0.00 0.00 0.00 23 1001.8
20260508202607 72 271 4.0 18.0 0.00 0.00 0.00 24 1001.8
20260508202107 72 303 5.0 18.0 0.00 0.00 0.00 24 1002.0
20260508201606 73 257 2.0 12.0 0.00 0.00 0.00 22 1002.0
20260508201104 72 184 2.0 15.0 0.00 0.00 0.00 24 1002.1
20260508200600 71 289 3.0 15.0 0.00 0.00 0.00 24 1002.2
20260508200100 72 256 2.0 11.0 0.00 0.00 0.00 23 1002.2
20260508195602 72 242 2.0 11.0 0.00 0.00 0.00 22 1002.3
20260508195100 72 11 1.0 4.0 0.00 0.00 0.00 23 1002.3
20260508194559 71 321 1.0 6.0 0.00 0.00 0.00 26 1002.5
20260508194100 71 317 1.0 6.0 0.00 0.00 0.00 23 1002.7
20260508193600 71 310 1.0 8.0 0.00 0.00 0.00 23 1002.7
20260508193058 71 277 1.0 8.0 0.00 0.00 0.00 23 1002.8
20260508192821 70 337 1.0 5.0 0.00 0.00 0.00 23 1002.8
20260508192058 70 347 1.0 7.0 0.00 0.00 0.00 23 1002.9
20260508191559 71 243 1.0 11.0 0.00 0.00 0.00 22 1003.0
20260508191541 72 310 1.0 11.0 0.00 0.00 0.00 23 1003.0
20260508190557 71 350 1.0 12.0 0.00 0.00 0.00 23 1003.0
20260508190057 70 305 3.0 12.0 0.00 0.00 0.00 24 1003.0
20260508185553 71 262 3.0 12.0 0.00 0.00 0.00 23 1003.0
20260508185050 71 169 3.0 12.0 0.00 0.00 0.00 21 1003.1
20260508184550 71 265 3.0 12.0 0.00 0.00 0.00 23 1003.0
20260508184051 71 217 2.0 12.0 0.00 0.00 0.00 23 1003.2
20260508183550 71 273 2.0 11.0 0.00 0.00 0.00 26 1003.2
20260508183048 69 292 2.0 11.0 0.00 0.00 0.00 23 1003.4
20260508182549 70 340 1.0 6.0 0.00 0.00 0.00 22 1003.4
20260508182048 71 331 2.0 11.0 0.00 0.00 0.00 23 1003.4
20260508181546 69 302 2.0 11.0 0.00 0.00 0.00 23 1003.5
20260508181044 70 299 2.0 11.0 0.00 0.00 0.00 24 1003.7
20260508180545 70 302 2.0 11.0 0.00 0.00 0.00 24 1003.7
20260508180044 70 298 1.0 7.0 0.00 0.00 0.00 25 1003.8
20260508175543 70 303 1.0 7.0 0.00 0.00 0.00 25 1004.0
20260508175044 70 254 1.0 6.0 0.00 0.00 0.00 23 1004.0
20260508175030 69 254 1.0 9.0 0.00 0.00 0.00 26 1004.2
20260508174044 69 295 1.0 9.0 0.00 0.00 0.00 26 1004.3
20260508173542 68 275 2.0 8.0 0.00 0.00 0.00 25 1004.4
20260508173043 68 281 2.0 9.0 0.00 0.00 0.00 24 1004.5
20260508172543 69 303 2.0 10.0 0.00 0.00 0.00 27 1004.6
20260508172042 69 240 2.0 10.0 0.00 0.00 0.00 26 1004.7
20260508171542 68 238 3.0 11.0 0.00 0.00 0.00 26 1004.8
20260508171042 67 261 2.0 11.0 0.00 0.00 0.00 26 1004.9
20260508170542 67 298 2.0 11.0 0.00 0.00 0.00 26 1004.9
20260508170043 67 310 2.0 9.0 0.00 0.00 0.00 26 1005.0
20260508165543 66 300 2.0 9.0 0.00 0.00 0.00 27 1005.0
20260508165042 67 234 2.0 7.0 0.00 0.00 0.00 26 1005.1
20260508164543 66 303 2.0 9.0 0.00 0.00 0.00 28 1005.1
20260508164042 66 252 2.0 9.0 0.00 0.00 0.00 26 1005.2
20260508163541 66 313 1.0 7.0 0.00 0.00 0.00 28 1005.2
20260508163041 65 254 1.0 7.0 0.00 0.00 0.00 28 1005.3
20260508162537 64 267 1.0 12.0 0.00 0.00 0.00 33 1005.3
20260508162032 63 284 2.0 12.0 0.00 0.00 0.00 31 1005.4
20260508161526 63 234 2.0 8.0 0.00 0.00 0.00 32 1005.5
20260508161027 63 202 2.0 8.0 0.00 0.00 0.00 32 1005.5
20260508160525 63 231 1.0 8.0 0.00 0.00 0.00 32 1005.7
20260508160024 62 241 1.0 7.0 0.00 0.00 0.00 34 1005.7
20260508155740 62 301 1.0 7.0 0.00 0.00 0.00 35 1005.7
20260508155023 61 244 0.0 6.0 0.00 0.00 0.00 33 1005.8
20260508154526 61 234 0.0 5.0 0.00 0.00 0.00 34 1005.7
20260508154025 61 263 0.0 5.0 0.00 0.00 0.00 35 1005.8
20260508153525 60 223 0.0 6.0 0.00 0.00 0.00 35 1005.9
20260508153024 60 218 1.0 6.0 0.00 0.00 0.00 36 1005.9
20260508152523 59 258 2.0 9.0 0.00 0.00 0.00 36 1005.9
20260508152021 59 262 2.0 9.0 0.00 0.00 0.00 34 1005.9
20260508151523 59 266 1.0 11.0 0.00 0.00 0.00 35 1006.1
20260508151015 59 208 1.0 11.0 0.00 0.00 0.00 37 1006.2
20260508150508 59 274 2.0 10.0 0.00 0.00 0.00 36 1006.4
20260508150008 59 232 3.0 10.0 0.00 0.00 0.00 35 1006.5
20260508145734 59 229 2.0 9.0 0.00 0.00 0.00 35 1006.4
20260508145006 59 209 0.0 7.0 0.00 0.00 0.00 38 1006.4
20260508144506 59 309 1.0 8.0 0.00 0.00 0.00 37 1006.5
20260508144006 58 256 1.0 8.0 0.00 0.00 0.00 36 1006.5
20260508143508 57 200 0.0 7.0 0.00 0.00 0.00 40 1006.5
20260508143222 56 273 0.0 5.0 0.00 0.00 0.00 38 1006.5
20260508142504 56 175 0.0 3.0 0.00 0.00 0.00 40 1006.5
20260508142003 56 214 0.0 4.0 0.00 0.00 0.00 42 1006.6
20260508141500 55 241 1.0 6.0 0.00 0.00 0.00 41 1006.6
20260508141000 55 242 1.0 8.0 0.00 0.00 0.00 41 1006.6
20260508140459 54 211 1.0 8.0 0.00 0.00 0.00 41 1006.6
20260508135958 54 187 1.0 8.0 0.00 0.00 0.00 42 1006.6
20260508135457 54 302 1.0 5.0 0.00 0.00 0.00 40 1006.6
20260508134956 54 259 1.0 5.0 0.00 0.00 0.00 41 1006.7
20260508134457 54 225 1.0 7.0 0.00 0.00 0.00 40 1006.7
20260508133954 53 223 1.0 7.0 0.00 0.00 0.00 43 1006.8
20260508133719 53 238 0.0 6.0 0.00 0.00 0.00 42 1006.8
20260508132953 53 166 0.0 7.0 0.00 0.00 0.00 44 1006.8
20260508132456 53 210 1.0 7.0 0.00 0.00 0.00 45 1006.9
20260508131953 51 238 1.0 6.0 0.00 0.00 0.00 46 1006.9
20260508131454 49 240 1.0 6.0 0.00 0.00 0.00 46 1006.9
20260508130955 47 212 1.0 5.0 0.00 0.00 0.00 50 1006.9
20260508130942 46 225 0.0 5.0 0.00 0.00 0.00 51 1006.9
20260508125954 46 214 0.0 5.0 0.00 0.00 0.00 52 1007.0
20260508125454 45 228 0.0 5.0 0.00 0.00 0.00 52 1006.9
20260508125217 44 186 0.0 4.0 0.00 0.00 0.00 54 1007.0
20260508124454 44 220 0.0 4.0 0.00 0.00 0.00 54 1007.0
20260508123953 43 213 0.0 0.0 0.00 0.00 0.00 56 1007.0
20260508123454 43 189 0.0 0.0 0.00 0.00 0.00 56 1007.0
20260508122954 42 222 0.0 0.0 0.00 0.00 0.00 57 1006.9
20260508122454 42 219 0.0 0.0 0.00 0.00 0.00 57 1006.9
20260508121954 42 217 0.0 0.0 0.00 0.00 0.00 58 1006.9
20260508121454 41 219 0.0 0.0 0.00 0.00 0.00 58 1006.9
20260508120951 41 219 0.0 0.0 0.00 0.00 0.00 58 1006.9
20260508120452 41 219 0.0 0.0 0.00 0.00 0.00 58 1007.0
20260508115951 40 218 0.0 0.0 0.00 0.00 0.00 58 1006.9
20260508115449 40 218 0.0 0.0 0.00 0.00 0.00 58 1006.8